SUD014 ZULS-ZGGG

Flight info

Callsign SUD014
Flight time N/A
Altitude 37100
Route LXA W500 DM W9 CZH B213 CTU W237 IDBOR B330 KWE W181 DUDIT A599 GYA GYA8
Aircraft A20N/M-SDE2E3FGHIRWXY/LB1

Departure

Time N/A
Airport Lhasa Gonggar International Airport (ZULS)

Arrival

Time 2026-04-28 14:03
Airport Guangzhou Baiyun International Airport (ZGGG)
Time Latitude Longitude Altitude Speed Heading
2026-04-28 13:14 23.78473 108.79278 36887 ft 479 kts 95°
2026-04-28 13:14 23.78039 108.86553 36888 ft 480 kts 95°
2026-04-28 13:15 23.77603 108.93820 36891 ft 480 kts 95°
2026-04-28 13:15 23.77164 109.01086 36883 ft 480 kts 95°
2026-04-28 13:16 23.76722 109.08350 36881 ft 480 kts 95°
2026-04-28 13:16 23.76053 109.15581 36886 ft 478 kts 102°
2026-04-28 13:17 23.74750 109.22703 36883 ft 478 kts 104°
2026-04-28 13:17 23.73279 109.29783 36884 ft 478 kts 106°
2026-04-28 13:18 23.71805 109.36760 36879 ft 478 kts 105°
2026-04-28 13:18 23.70345 109.43843 36886 ft 478 kts 105°
2026-04-28 13:19 23.68906 109.50930 36884 ft 481 kts 105°
2026-04-28 13:19 23.67456 109.58073 36889 ft 483 kts 105°
2026-04-28 13:20 23.65998 109.65223 36886 ft 483 kts 105°
2026-04-28 13:20 23.64528 109.72360 36896 ft 483 kts 105°
2026-04-28 13:21 23.63051 109.79500 36896 ft 483 kts 105°
2026-04-28 13:21 23.61567 109.86662 36910 ft 485 kts 107°
2026-04-28 13:22 23.60075 109.93845 36909 ft 487 kts 106°
2026-04-28 13:22 23.58577 110.01046 36911 ft 487 kts 107°
2026-04-28 13:23 23.57078 110.08236 36918 ft 487 kts 107°
2026-04-28 13:23 23.55573 110.15437 36916 ft 487 kts 107°
2026-04-28 13:24 23.54065 110.22626 36918 ft 487 kts 107°
2026-04-28 13:24 23.52555 110.29810 36917 ft 487 kts 107°
2026-04-28 13:25 23.51046 110.36989 36918 ft 487 kts 107°
2026-04-28 13:25 23.49571 110.44201 36792 ft 486 kts 107°
2026-04-28 13:25 23.48843 110.47800 36546 ft 486 kts 107°
2026-04-28 13:26 23.48114 110.51400 36297 ft 489 kts 107°
2026-04-28 13:26 23.47378 110.55020 36055 ft 490 kts 107°
2026-04-28 13:26 23.46637 110.58653 35856 ft 491 kts 107°
2026-04-28 13:27 23.45153 110.65915 35828 ft 491 kts 107°
2026-04-28 13:27 23.43672 110.73126 35828 ft 491 kts 107°
2026-04-28 13:28 23.42143 110.80416 35836 ft 491 kts 107°
2026-04-28 13:28 23.40607 110.87675 35835 ft 494 kts 108°
2026-04-28 13:29 23.39069 110.94922 35835 ft 495 kts 108°
2026-04-28 13:29 23.37520 111.02224 35834 ft 495 kts 107°
2026-04-28 13:30 23.35960 111.09571 35835 ft 495 kts 108°
2026-04-28 13:30 23.34414 111.16873 35839 ft 496 kts 107°
2026-04-28 13:31 23.32164 111.27879 35843 ft 498 kts 107°
2026-04-28 13:31 23.30664 111.35237 35844 ft 498 kts 107°
2026-04-28 13:32 23.29167 111.42537 35845 ft 498 kts 107°
2026-04-28 13:32 23.27655 111.49878 35844 ft 497 kts 107°
2026-04-28 13:33 23.26897 111.53541 35544 ft 496 kts 107°
2026-04-28 13:33 23.26133 111.57189 35022 ft 494 kts 107°
2026-04-28 13:33 23.25366 111.60825 34487 ft 492 kts 108°
2026-04-28 13:33 23.24598 111.64441 33923 ft 491 kts 107°
2026-04-28 13:34 23.23827 111.68061 33252 ft 491 kts 107°
2026-04-28 13:34 23.23055 111.71680 32522 ft 492 kts 107°
2026-04-28 13:34 23.22282 111.75302 31790 ft 493 kts 107°
2026-04-28 13:34 23.21505 111.78936 31250 ft 495 kts 107°
2026-04-28 13:35 23.20726 111.82600 30658 ft 500 kts 107°
2026-04-28 13:35 23.19964 111.86308 30427 ft 506 kts 106°
2026-04-28 13:35 23.19202 111.90048 30198 ft 507 kts 106°
2026-04-28 13:35 23.18435 111.93786 29977 ft 508 kts 106°
2026-04-28 13:36 23.17663 111.97528 29735 ft 508 kts 106°
2026-04-28 13:36 23.16885 112.01281 29458 ft 508 kts 106°
2026-04-28 13:36 23.16105 112.05028 29192 ft 509 kts 106°
2026-04-28 13:36 23.15323 112.08777 28936 ft 509 kts 106°
2026-04-28 13:37 23.14541 112.12520 28672 ft 509 kts 106°
2026-04-28 13:37 23.13751 112.16290 28402 ft 511 kts 106°
2026-04-28 13:37 23.12961 112.20055 28156 ft 512 kts 106°
2026-04-28 13:37 23.12170 112.23826 27907 ft 513 kts 106°
2026-04-28 13:38 23.11376 112.27606 27649 ft 513 kts 106°
2026-04-28 13:38 23.10581 112.31383 27406 ft 513 kts 106°
2026-04-28 13:38 23.09785 112.35162 27158 ft 513 kts 106°
2026-04-28 13:38 23.08989 112.38939 26914 ft 513 kts 106°
2026-04-28 13:39 23.08189 112.42726 26674 ft 514 kts 106°
2026-04-28 13:39 23.07397 112.46502 26339 ft 512 kts 105°
2026-04-28 13:39 23.06931 112.50340 25263 ft 518 kts 95°
2026-04-28 13:39 23.06863 112.54281 24101 ft 525 kts 92°
2026-04-28 13:40 23.06882 112.58228 23099 ft 519 kts 91°
2026-04-28 13:40 23.06906 112.62098 22032 ft 506 kts 91°
2026-04-28 13:40 23.06919 112.65853 21064 ft 492 kts 92°
2026-04-28 13:40 23.06924 112.69530 20130 ft 479 kts 92°
2026-04-28 13:41 23.06919 112.73100 19211 ft 468 kts 92°
2026-04-28 13:41 23.06898 112.76595 18297 ft 459 kts 92°
2026-04-28 13:41 23.06871 112.80022 17312 ft 450 kts 93°
2026-04-28 13:41 23.06844 112.83391 16386 ft 441 kts 93°
2026-04-28 13:42 23.06816 112.86686 15499 ft 432 kts 93°
2026-04-28 13:42 23.06788 112.89918 14636 ft 424 kts 93°
2026-04-28 13:42 23.06760 112.93092 13782 ft 417 kts 94°
2026-04-28 13:42 23.06267 112.96122 12867 ft 402 kts 116°
2026-04-28 13:43 23.04750 112.98562 12102 ft 382 kts 141°
2026-04-28 13:43 23.02532 112.99975 11539 ft 369 kts 166°
2026-04-28 13:43 22.99989 113.00684 11290 ft 384 kts 172°
2026-04-28 13:43 22.97378 113.01380 11039 ft 391 kts 162°
2026-04-28 13:44 22.95096 113.02999 10795 ft 399 kts 139°
2026-04-28 13:44 22.93521 113.05436 10316 ft 398 kts 116°
2026-04-28 13:44 22.92975 113.08360 10134 ft 390 kts 91°
2026-04-28 13:44 22.93518 113.11162 10010 ft 373 kts 67°
2026-04-28 13:45 22.94957 113.13389 9895 ft 354 kts 48°
2026-04-28 13:45 22.96556 113.15335 9768 ft 337 kts 47°
2026-04-28 13:45 22.98342 113.16884 9506 ft 323 kts 27°
2026-04-28 13:45 23.00349 113.17856 9230 ft 311 kts 16°
2026-04-28 13:46 23.02437 113.18292 8983 ft 303 kts 359°
2026-04-28 13:46 23.04520 113.18134 8739 ft 299 kts 348°
2026-04-28 13:46 23.06558 113.17722 8493 ft 297 kts 345°
2026-04-28 13:46 23.08573 113.17248 8249 ft 296 kts 345°
2026-04-28 13:47 23.10586 113.16755 8003 ft 295 kts 345°
2026-04-28 13:47 23.12586 113.16261 7767 ft 295 kts 345°
2026-04-28 13:47 23.14585 113.15764 7523 ft 294 kts 345°
2026-04-28 13:47 23.16575 113.15269 7283 ft 293 kts 345°
2026-04-28 13:48 23.18562 113.14779 7048 ft 293 kts 346°
2026-04-28 13:48 23.20601 113.14639 6824 ft 295 kts
2026-04-28 13:48 23.22637 113.14960 6595 ft 296 kts
2026-04-28 13:48 23.24657 113.15384 6365 ft 297 kts 10°
2026-04-28 13:49 23.26688 113.15825 6126 ft 297 kts 10°
2026-04-28 13:49 23.28714 113.16263 5881 ft 297 kts 11°
2026-04-28 13:49 23.30737 113.16696 5796 ft 296 kts 10°
2026-04-28 13:49 23.32766 113.17129 5789 ft 296 kts 10°
2026-04-28 13:50 23.34759 113.17552 5883 ft 296 kts 10°
2026-04-28 13:50 23.36778 113.17980 5900 ft 296 kts 10°
2026-04-28 13:50 23.38802 113.18408 5902 ft 296 kts 10°
2026-04-28 13:50 23.40825 113.18837 5901 ft 297 kts 10°
2026-04-28 13:51 23.42849 113.19265 5902 ft 297 kts 10°
2026-04-28 13:51 23.44877 113.19691 5901 ft 297 kts 10°
2026-04-28 13:51 23.46902 113.20111 5898 ft 296 kts 10°
2026-04-28 13:51 23.48926 113.20528 5900 ft 296 kts 10°
2026-04-28 13:52 23.50954 113.20946 5894 ft 296 kts 10°
2026-04-28 13:52 23.52970 113.21360 5898 ft 296 kts 10°
2026-04-28 13:52 23.54998 113.21777 5889 ft 296 kts 10°
2026-04-28 13:52 23.57022 113.22197 5894 ft 294 kts 10°
2026-04-28 13:53 23.58972 113.22600 5884 ft 276 kts 10°
2026-04-28 13:53 23.60797 113.22976 5882 ft 259 kts
2026-04-28 13:53 23.62523 113.23320 5887 ft 246 kts
2026-04-28 13:53 23.64211 113.23647 5853 ft 246 kts 10°
2026-04-28 13:54 23.65814 113.24280 5618 ft 246 kts 36°
2026-04-28 13:54 23.66886 113.25638 5374 ft 239 kts 72°
2026-04-28 13:54 23.67303 113.27369 5134 ft 237 kts 85°
2026-04-28 13:54 23.67536 113.29147 4924 ft 237 kts 88°
2026-04-28 13:55 23.67748 113.30929 4800 ft 237 kts 88°
2026-04-28 13:55 23.67967 113.32709 4688 ft 237 kts 88°
2026-04-28 13:55 23.68181 113.34487 4565 ft 235 kts 91°
2026-04-28 13:55 23.68004 113.36206 4440 ft 224 kts 119°
2026-04-28 13:56 23.67099 113.37488 4264 ft 210 kts 151°
2026-04-28 13:56 23.65769 113.38003 4005 ft 202 kts 181°
2026-04-28 13:56 23.64402 113.37832 3701 ft 200 kts 194°
2026-04-28 13:56 23.63052 113.37463 3417 ft 201 kts 196°
2026-04-28 13:57 23.61707 113.37071 3137 ft 199 kts 196°
2026-04-28 13:57 23.60383 113.36693 3007 ft 197 kts 196°
2026-04-28 13:57 23.59050 113.36331 2993 ft 197 kts 194°
2026-04-28 13:57 23.57750 113.35991 3017 ft 185 kts 195°
2026-04-28 13:58 23.56543 113.35660 2888 ft 175 kts 194°
2026-04-28 13:58 23.55769 113.35446 2742 ft 172 kts 194°
2026-04-28 13:58 23.54283 113.35037 2610 ft 161 kts 193°
2026-04-28 13:58 23.53231 113.34753 2489 ft 151 kts 193°
2026-04-28 13:59 23.52237 113.34491 2308 ft 143 kts 193°
2026-04-28 13:59 23.51599 113.34318 2184 ft 138 kts 193°
2026-04-28 13:59 23.50418 113.33996 1942 ft 129 kts 191°
2026-04-28 13:59 23.49834 113.33839 1858 ft 132 kts 192°
2026-04-28 14:00 23.48943 113.33600 1663 ft 132 kts 191°
2026-04-28 14:00 23.48058 113.33362 1486 ft 131 kts 191°
2026-04-28 14:00 23.46885 113.33046 1259 ft 131 kts 192°
2026-04-28 14:00 23.46291 113.32885 1148 ft 130 kts 190°
2026-04-28 14:01 23.45410 113.32649 989 ft 131 kts 192°
2026-04-28 14:01 23.44530 113.32410 836 ft 130 kts 191°
2026-04-28 14:01 23.43653 113.32174 676 ft 130 kts 194°
2026-04-28 14:01 23.42779 113.31938 516 ft 131 kts 193°
2026-04-28 14:02 23.41900 113.31700 280 ft 128 kts 193°
2026-04-28 14:02 23.41034 113.31471 163 ft 129 kts 193°
2026-04-28 14:02 23.40171 113.31244 60 ft 122 kts 193°
2026-04-28 14:02 23.39342 113.31012 58 ft 59 kts 193°
2026-04-28 14:03 23.39153 113.30960 59 ft 24 kts 195°
2026-04-28 14:03 23.39064 113.30925 55 ft 12 kts 203°
2026-04-28 14:03 23.38997 113.30880 63 ft 11 kts 219°
2026-04-28 14:03 23.38934 113.30817 58 ft 13 kts 222°
2026-04-28 14:04 23.38902 113.30786 59 ft 0 kts 222°
2026-04-28 14:04 23.38892 113.30775 56 ft 5 kts 229°
2026-04-28 14:04 23.38881 113.30740 56 ft 5 kts 267°
2026-04-28 14:05 23.38893 113.30706 55 ft 5 kts 314°
2026-04-28 14:05 23.38921 113.30686 58 ft 5 kts 319°
2026-04-28 14:05 23.38939 113.30653 59 ft 6 kts 289°
2026-04-28 14:05 23.38952 113.30606 54 ft 7 kts 285°
2026-04-28 14:06 23.38968 113.30535 54 ft 13 kts 284°
2026-04-28 14:06 23.38988 113.30444 59 ft 3 kts 283°
2026-04-28 14:06 23.38993 113.30420 54 ft 4 kts 283°
2026-04-28 14:06 23.39002 113.30378 59 ft 10 kts 284°
2026-04-28 14:07 23.39015 113.30326 61 ft 1 kts 284°
2026-04-28 14:07 23.39046 113.30302 61 ft 7 kts 356°
2026-04-28 14:07 23.39081 113.30309 58 ft 3 kts 12°
2026-04-28 14:07 23.39088 113.30310 57 ft 0 kts 13°